Home   Weather   Fort Lauderdale   Past weeks

Flag for USA Past Weather in Fort Lauderdale, Florida, USA — Yesterday and Last 2 Weeks

Now
79 °F

Passing clouds.


Feels Like: 82 °F
Forecast: 65 / 78 °F
Wind: 17 mph from Southwest

Location: Fort Lauderdale / Hollywood International Airport

Current Time: Jan 22, 2017 at 9:50:40 pm

Latest Report: Jan 22, 2017 at 8:53 pm


Visibility: 10 mi

Pressure: 29.67 "Hg

Humidity: 72%

Dew Point: 69 °F

Location of Fort LauderdaleLocation

Past Weather in Fort Lauderdale — Graph

°F

Fort Lauderdale Temperature Yesterday

Maximum temperature yesterday: 82 °F (at 2:53 pm)
Minimum temperature yesterday: 64 °F (at 5:53 am)
Average temperature yesterday: 73 °F

High & Low Weather Summary for the Past Weeks

 TemperatureHumidityPressure
High85 °F (Jan 22, 3:53 pm)97% (Jan 11, 3:14 am)30.49 "Hg (Jan 11, 3:14 am)
Low48 °F (Jan 8, 2:53 am)40% (Jan 10, 10:53 am)29.67 "Hg (Jan 22, 7:53 pm)
Average71 °F69%30.19 "Hg
* Reported Jan 7 7:53 pm — Jan 22 7:53 pm, Fort Lauderdale, Weather by CustomWeather, © 2017

Note: Actual official high and low records may vary slightly from our data, if they occured in-between our weather recording intervals... More about our weather records

Advertising

Fort Lauderdale Weather History for the Previous 24 Hours

Scroll right to see more
 ConditionsComfort  
Time TempWeatherWind HumidityBarometerVisibility
7:53 pm
Sun, Jan 22
79 °FPassing clouds.14 mph72%29.67 "Hg10 mi
6:53 pm80 °FPassing clouds.14 mph67%29.68 "Hg10 mi
5:53 pm81 °FPassing clouds.14 mph62%29.68 "Hg10 mi
4:53 pm83 °FScattered clouds.22 mph57%29.68 "Hg10 mi
3:53 pm85 °FScattered clouds.22 mph51%29.68 "Hg10 mi
2:53 pm82 °FBroken clouds.21 mph67%29.69 "Hg10 mi
1:53 pm82 °FPartly sunny.22 mph67%29.71 "Hg10 mi
12:53 pm82 °FBroken clouds.21 mph67%29.75 "Hg10 mi
11:53 am82 °FPartly sunny.20 mph65%29.79 "Hg10 mi
10:53 am82 °FBroken clouds.17 mph67%29.81 "Hg10 mi
10:07 am81 °FPartly sunny.18 mph69%29.83 "Hg10 mi
9:53 am80 °FScattered clouds.22 mph71%29.83 "Hg10 mi
8:53 am78 °FPassing clouds.14 mph79%29.81 "Hg10 mi
7:53 am75 °FPassing clouds.9 mph85%29.81 "Hg10 mi
6:53 am74 °FPassing clouds.8 mph85%29.82 "Hg10 mi
5:53 am74 °FPassing clouds.7 mph85%29.81 "Hg10 mi
4:53 am74 °FPassing clouds.7 mph88%29.81 "Hg10 mi
3:53 am75 °FPassing clouds.10 mph85%29.82 "Hg10 mi
2:53 am75 °FPartly cloudy.9 mph85%29.82 "Hg10 mi
1:53 am74 °FPassing clouds.12 mph85%29.83 "Hg10 mi
12:53 am73 °FPassing clouds.6 mph81%29.84 "Hg10 mi
11:53 pm
Sat, Jan 21
72 °FPassing clouds.7 mph81%29.85 "Hg10 mi
10:53 pm71 °FPassing clouds.6 mph76%29.87 "Hg10 mi
9:53 pm72 °FPassing clouds.6 mph71%29.88 "Hg10 mi
Weather by CustomWeather, © 2017

See weather overviewHow to use our weather pages